Location: Auckland
(36.8670°S, 174.7670°E)
Time: 02:23:52
(UTC+12:00)

Tiros 1 despin weight - Pass Details

Date: 27 July 2019
Orbit: 594 x 642 km, 48.2° (Epoch: 22 August)

Event Time Altitude Azimuth Distance (km) Brightness Sun altitude
Rises 03:39:05 0° 233° (SW) 2,864 - -44.8°
Reaches altitude 10° 03:41:25 10° 229° (SW) 1,962 - -44.4°
Maximum altitude 03:45:51 55° 150° (SSE) 738 - -43.5°
Drops below altitude 10° 03:50:17 10° 71° (ENE) 1,972 - -42.6°
Exits shadow 03:51:26 - 69° (ENE) 2,410 ? -42.4°
Sets 03:52:39 0° 67° (ENE) 2,881 ? -42.2°
